Погода в Витебске

Поиск расширенной информации на нашем сайте:

Полезная информация:

Новости сайта



02.01.2020
Опубликован Долгосрочный прогноз погоды по городам России и ближнего зарубежья на январь 2020 года.
Карты: Прогноз на январь и февраль 2020 года, Сравнение прогнозируемой аномалии приземной температуры воздуха на январь 2020 года по разным моделям.




Погода в Витебске - сегодня

Время (UTC), дата Ветер
(°,м/с) 
Видим.   Явления Облачность Т
(°С)
Тd
(°С)
f(%) Тe
(°С)
Pmin
(гПа)
dP
(гПа)
Po
(мм)
O2
(г/м3)
Тmin Tmax R s Состояние
почвы
09 16.01.21 350 (С) 8000 м  слаб. снег  10/0 средняя 
[As op]
-19.4 -22.3 78 -20  1014  1.1  743  324           
12 16.01.21 350 (С) 21000 м  {снег}  10/0 средняя 
[As op]
-16.7 -20.7 71 -17  1014.1  0.4  743  320           
15 16.01.21 310 (СЗ) 20000 м  в посл. час снег  9/9 500 м 
[Sc]
-17 -20.2 76 -17  1014.5  0.3  743  321           
18 16.01.21 290 (З) 17000 м  {снег}  9/9 540 м 
[Sc]
-16.3 -19.1 79 -16  1015  0.6  744  320    -16.3  0.2     
21 16.01.21 330 (СЗ) 21000 м  в посл. час снег  9/0 средняя 
[Ac trans]
-17 -19.8 79 -19  1015.6  0.5  744  321           
00 17.01.21 360 (С) 20000 м  {снег}  10/0 средняя 
[Ac As]
-18.3 -20.8 81 -21  1015.9  0.2  744  323           
03 17.01.21 010 (С) 18000 м  слаб. снег  9/6 330 м средняя 
[Frnb|As op]
-19.7 -21.7 84 -22  1016.5  0.4  745  325      0.0  15   
06 17.01.21 010 (С) 8000 м  слаб. снег  9/6 400 м средняя 
[Frnb|As op]
-20.1 -22.1 84 -23  1017.6  1.1  745  326  -20.1    0.2  15  равномерный
сухой снег
100% 
09 17.01.21 060 (СВ) 15000 м  в посл. час снег  4/4 300 м 
[St]
-19.2 -21.8 80 -19  1019  1.4  746  325           
12 17.01.21 тихо ()   10 км  {снег}  1/0 верхняя 
[Ci fib]
-15.9 -20.8 66 -16  1018.6  -0.1  746  321           
15 17.01.21 тихо ()   10 км    ясно 
-18.3 -20.1 86 -18  1019.7  0.9  747  324      0.0     
18 17.01.21 тихо ()   6000 м  дымка  ясно 
-19.5 -21.1 87 -20  1020.8  0.9  748  326    -15.3  0.0     
21 17.01.21 тихо ()   9000 м  дымка [диам. изморози 1 мм]  ясно 
-21.4 -23.4 84 -21  1020.9  748  329           
00 18.01.21 тихо ()   11000 м  [диам. изморози 2 мм]  ясно 
-22 -23.7 86 -22  1021.2  0.2  748  329           
03 18.01.21 тихо ()   8000 м  дымка  ясно 
-23.4 -25.2 85 -23  1021.2  -0.1  748  331           
06 18.01.21 тихо ()   7000 м  дымка{снег} [диам. изморози 2 мм]  6/3 200 м средняя 
[St|As op]
-23.9 -25.8 84 -24  1021.6  0.3  748  332  -25.1    0.0  15  равномерный
сухой снег
100% 
09 18.01.21 тихо ()   1300 м  мгла  6/0 средняя 
[Ac As]
-20.5 -22.9 81 -21  1021.7  0.4  748  328           
12 18.01.21 тихо ()   9000 м  мгла  9/0 средняя, верхняя 
[Ac trans|Ci fib]
-14.2 -17.7 75 -14  1020.2  -0.9  748  319           
15 18.01.21 тихо ()   10 км  в посл. час снег  10/10 450 м 
[St]
-13 -15.1 84 -13  1019.9  -0.1  748  318           
18 18.01.21 260 (З) 8000 м  слаб. снег  9/9 270 м 
[Frnb]
-13 -14.3 90 -13  1019.5  -0.4  747  317    -12.6  0.0     
21 18.01.21 200 (Ю) 9000 м  слаб. снег  9/9 800 м 
[Sc]
-13.4 -15.2 86 -13  1019.9  0.3  747  318           
00 19.01.21 тихо ()   16000 м  в посл. час снег  10/10 210 м 
[St]
-13.3 -15.1 86 -13  1019.1  -0.7  747  318           
03 19.01.21 тихо ()   2500 м  слаб. снег  10/10 120 м 
[St]
-12.4 -12.9 96 -12  1018.8  -0.3  747  316      0.8  16   
06 19.01.21 тихо ()   7000 м  слаб. снег  10/10 120 м 
[St]
-12 -12.9 93 -12  1018.9  0.2  747  316  -13.9    0.8  16  равномерный
сухой снег
100% 
09 19.01.21 тихо ()   4100 м  слаб. снег  10/10 100 м 
[Frnb|Ns]
-10.9 -11.8 93 -11  1019.1  0.3  747  315           
Время (UTC), дата Ветер
(°,м/с) 
Видим.   Явления Облачность Т
(°С)
Тd
(°С)
f(%) Тe
(°С)
Pmin
(гПа)
dP
(гПа)
Po
(мм)
O2
(г/м3)
Тmin Tmax R s Состояние
почвы

Для получения пояснительной информации подведите курсор к названию столбца.

ПОГОДА в Витебске - архив

Всё, что Вы хотите узнать о погоде в Витебске - удобно и подробно!

Выберите нужную дату (начиная с 1 января 2019* года) и нажмите кнопку "Найти".
Будут отображены архивные сводки погоды по пункту Витебск, начиная с указанной даты.


Отображать данные в формате CSV (для использования в таблицах Excel)


Внимание! Наш архив погоды предназначен исключительно для личного некоммерческого использования в познавательных целях. Если Вам необходимы официальные справки о состоянии погоды (для производственных, юридических, коммерческих и т.п. целей), обращайтесь в органы Росгидромета.

*Примечание: данная дата относится к архиву по метеостанциям СССР (Россия, СНГ, Балтия).
Архив по метеостанциям Зарубежной Европы и Азии (кроме Китая) хранится 10 дней, по другим регионам земного шара (Китай, Африка, Америка, Австралия, Океания) - 1 день.

Витебск - район местоположения метеостанции


Название, широта, долгота, высота метеостанции:
Витебск (город) 55.1°ш. 30.3°д. 170 м над ур. моря [Беларусь]

Дополнительная информация

В oтличие oт бoльшинства пoгoдных сайтoв мы публикуем пoдрoбную метеoинфoрмацию в детальнoм прoфессиoнальнoм фoрмате.

Характеристики температуры и влажнoсти вoздуха измеряются на высoте 2 м в тени вдали oт зданий и деревьев.
Скoрoсть ветра измеряется на высoте 10 м (на урoвне рoста челoвека скoрoсть ветра ниже в 1.5-2 раза). Если метеoстанция нахoдится в гoрoде или в лесу, тo скoрoсть ветра занижена на 2-4 м/с пo сравнению с oткрытым местoм. Скoрoсть ветра над акватoриями крупных рек и oзёр, а также на вершинах хoлмoв на 2-5 м/с выше, чем в oбычных услoвиях.
Атмoсфернoе давление в разных тoчках местнoсти мoжет значительнo oтличаться oт давления на метеoстанции, в зависимoсти oт услoвий рельефа (при пoдъёме на 10 м давление пoнижается примернo на 1 мм рт.ст.).